Regional Weather Roundup
Issued by NWS Charleston, SC

Current Version | Previous Version | Graphics & Text | Print | Product List | Glossary On
Versions: 1 2 3 4 5 6 7 8 9 10 11 12 13 14 15 16 17 18 19 20 21 22 23 24 25 26 27 28 29 30 31 32 33 34 35 36 37 38 39 40 41 42 43 44 45 46 47 48 49 50
000
ASUS42 KCHS 030312
RWRCHS

REGIONAL WEATHER ROUNDUP
NATIONAL WEATHER SERVICE CHARLESTON SC
1100 PM EDT SUN AUG 02 2015

NOTE: "FAIR" INDICATES FEW OR NO CLOUDS BELOW 12,000 FEET WITH NO
SIGNIFICANT WEATHER AND/OR OBSTRUCTIONS TO VISIBILITY.

NOT ALL STATIONS ARE QUALITY CONTROLLED BY THE NATIONAL
WEATHER SERVICE. USE DATA WITH CAUTION...ESPECIALLY
DEWPOINT OBSERVATIONS.

SCZ027-030-031-034>040-042>050-030400-
...SOUTHEAST SOUTH CAROLINA...

CITY           SKY/WX    TMP DP  RH WIND       PRES   REMARKS
N CHARLESTON   HVY RAIN  76  74  93 S12       29.92R FOG
WATERFRONT PRK   N/A     81  77  88 VRB3      29.90R
MOUNT PLEASANT LGT RAIN  77  75  94 E3        29.92F
JOHNS ISLAND   CLOUDY    79  77  94 CALM      29.92S
PINOPOLIS      NOT AVBL
MONCKS CORNER  FAIR      77  72  83 CALM      29.92F
SUMMERVILLE    FAIR      75  75 100 CALM      29.92F
BEAUFORT MCAS  PTCLDY    77  73  87 N3        29.90F
BEAUFORT ARPT  FAIR      77  77 100 CALM      29.90F FOG
HILTON HEAD IS MOCLDY    75  75 100 S3        29.91F FOG
WALTERBORO     CLEAR     77  73  88 SE6       29.93S
ALLENDALE      FAIR      77  73  88 SE6       29.91S

...SOUTHERN MIDLANDS AND PEE DEE...

CITY           SKY/WX    TMP DP  RH WIND       PRES   REMARKS
GEORGETOWN     NOT AVBL
KINGSTREE      NOT AVBL
ORANGEBURG     CLEAR     77  70  79 S8        29.92S
BARNWELL       FAIR      79  73  83 SE6       29.92S
AIKEN          FAIR      75  70  83 SE3       29.95S
MANNING        HVY RAIN  73  70  88 CALM      29.92S
COLUMBIA       PTCLDY    79  70  74 E6        29.91S
SUMTER         PTCLDY    76  69  80 E3        29.91R
FLORENCE       MOCLDY    78  73  84 CALM      29.92F
MYRTLE BEACH   CLOUDY    82  72  69 S15G21    29.95R
N MYRTLE BEACH MOCLDY    81  73  76 S15G22    29.94R

$$

GAZ063-065-086>088-099>101-113>116-118-119-134>141-150-030400-
...SOUTHEAST GEORGIA...

CITY           SKY/WX    TMP DP  RH WIND       PRES   REMARKS
SAVANNAH ARPT  MOCLDY    76  73  91 CALM      29.90F
HUNTER AAF     PTCLDY    76  76 100 E2        29.88S
FORT STEWART   NOT AVBL
STATESBORO     CLOUDY    76  76 100 CALM      29.90F
SYLVANIA       MOCLDY    77  76  97 CALM      29.92S
CLAXTON        NOT AVBL

...CSRA...CENTRAL AND FAR SOUTHEAST GEORGIA...

CITY           SKY/WX    TMP DP  RH WIND       PRES   REMARKS
THOMSON        PTCLDY    77  76  99 CALM      29.95S
AUGUSTA-BUSH   PTCLDY    75  72  90 SE6       29.90R
AUGUSTA-DANIEL PTCLDY    79  70  74 SE5       29.92R
SWAINSBORO     FAIR      81  81 100 E3        29.92S HX  91
VIDALIA        CLOUDY    77  73  88 SE3       29.90F FOG
EASTMAN        FAIR      78  78 100 E3        29.92S
HAZLEHURST     MOCLDY    78  78 100 CALM      29.88S
ALMA           CLOUDY    76  73  91 E6        29.88S
WAYCROSS       CLOUDY    79  78  95 SE6       29.88S
JESUP          FAIR      79  77  94 SE3       29.89S
BAXLEY         CLOUDY    77  73  88 CALM      29.89R
BRUNSWICK      CLOUDY    81  73  78 S7        29.90S
SAINT SIMONS   CLOUDY    81  72  74 S13G20    29.89S

$$

SCZ027-028-034-036>038-045-046-048>050-GAZ119-141-030400-
...LAKE AND SUPPLEMENTAL COASTAL OBSERVATIONS...

STATION/POSITION TIME  TEMP    WIND        PRES    WAVE   SWELL
                       AIR SEA DIR/SP/G            HT/PER HT/PER/DIR
                 (UTC) (F)     (DEG/KT/KT) (MB)    (FT/S) (FT/S/D)
UPR LAKE MARION  NOT AVBL
WINYAH BAY       NOT AVBL
LAKE MURRAY      0200   81     140/  4/  6 1012.2R
ACE BASIN NERRS  NOT AVBL
FORT PULASKI     0200   78 86  120/  2/  2 1013.2S
SAPELO ISLAND    0200   78     140/  6     1012.0S

$$

ANZ835-935-AMZ111-154-330-350-352-354-370-450-454-472-030400-
...C-MAN AND BUOY OBSERVATIONS...

STATION/POSITION TIME  TEMP    WIND        PRES    WAVE   SWELL
                       AIR SEA DIR/SP/G            HT/PER HT/PER/DIR
                 (UTC) (F)     (DEG/KT/KT) (MB)    (FT/S) (FT/S/D)
BUOY 41004       0250   78 83  180/ 16/ 17 1013.8R   5/ 5   2/ 9
BUOY 41008       0250   81 83  180/ 17/ 19 1012.4F   4/ 6   2/110/10
FOLLY BEACH CMAN 0200   81     160/  7/  7 1013.1R
CAPERS NEARSHORE 0208   81     160/ 14/ 17 1013.4R
FRIPP NEARSHORE  0200   81     230/ 10/ 14 1012.3R


STATION/POSITION TIME  TEMP    WIND        PRES    WAVE   SWELL
                       AIR SEA DIR/SP/G            HT/PER HT/PER/DIR
                 (UTC) (F)     (DEG/KT/KT) (MB)    (FT/S) (FT/S/D)
5E ST. MARYS GA  0221      82                N/A     5/ 6
FRYING PAN BUOY  0250   80 83  200/ 21/ 25 1014.4R   6/ 6   2/170/12
BUOY 41025       0250   82 85  240/ 14/ 17 1014.6R   4/ 4   2/200/11
CAPE LOOKOUT NC  0200   79     220/ 12/ 15 1014.0R
BUOY 41002       0250   81 81  200/  8/ 10 1016.9R   5/ 7   5/250/ 7
BUOY 41010       0220   83 84  190/ 10/ 12 1015.7R
ST AUGUSTINE FL  0300   78 81  190/ 15/ 18 1013.7R


$$



USA.gov is the U.S. government's official web portal to all federal, state and local government web resources and services.